[[{"header":{"parameterUnit":"m.s-1","parameterCategory":2,"la1":30.2991,"la2":30.254,"lo1":-89.0895,"lo2":-89.0444,"dy":0.0017,"dx":0.0017,"nx":28,"ny":28,"refTime":"2023-11-08T03:00:00:Z","depth":"0","parameterNumber":2,"parameterNumberName":"U-component_of_CURRENTS"},"data":[0,0,0,0,0,0,0,0,0,0,0,0,0,0,0,0,0,0,0,0,0,0,0,0,0,0,0,0,0,0,0,0,0,0,0,0,0,0,0,0,0,0,0,0,0,0,0,0,0,0,0,0,0,0,0,0,0,0,-0.1437,-0.1437,0,-0.1405,-0.1404,-0.1403,-0.1376,-0.1377,-0.1377,-0.1377,-0.1318,-0.1316,-0.1314,0,0,0,0,0,0,0,0,0,0,0,0,0,-0.145,-0.145,-0.1437,-0.1437,-0.1437,-0.1405,-0.1404,-0.1403,-0.1376,-0.1377,-0.1377,-0.1377,-0.1318,-0.1316,-0.1314,0,0,0,0,0,0,0,0,0,0,0,0,0,-0.1429,-0.1449,-0.1437,-0.1424,-0.1423,-0.1405,-0.1404,-0.1403,-0.1376,-0.1377,-0.1377,-0.1377,-0.1319,-0.1317,-0.1314,-0.1292,0,0,-0.1306,-0.1305,0,0,0,0,0,0,0,0,-0.143,-0.1428,-0.1426,-0.1425,-0.1424,-0.14,-0.1387,-0.1366,-0.1376,-0.1388,-0.1377,-0.1377,-0.1346,-0.1341,-0.1327,-0.129,-0.1287,-0.1306,-0.1304,-0.1303,-0.1302,0,0,0,0,0,0,0,-0.1432,-0.1429,-0.1419,-0.1426,-0.1425,-0.1411,-0.1408,-0.1383,-0.1362,-0.1387,-0.1387,-0.1391,-0.1344,-0.133,-0.1326,-0.1286,-0.1306,-0.1304,-0.1302,-0.1301,-0.1225,-0.1224,0,0,0,0,0,0,-0.1447,-0.143,-0.142,-0.1419,-0.1433,-0.1411,-0.1408,-0.1403,-0.1362,-0.1358,-0.1391,-0.139,-0.1334,-0.1329,-0.1324,-0.1322,-0.1303,-0.1301,-0.1299,-0.1225,-0.1224,-0.1224,0,0,0,0,0,0,-0.1447,-0.1446,-0.1422,-0.1429,-0.1425,-0.1411,-0.1406,-0.1402,-0.1393,-0.1366,-0.1361,-0.1388,-0.1334,-0.1327,-0.1304,-0.1319,-0.13,-0.1297,-0.1226,-0.1225,-0.1224,-0.1302,0,0,0,0,0,0,-0.1447,-0.1446,-0.1442,-0.1429,-0.1426,-0.1432,-0.1406,-0.1401,-0.1398,-0.1396,-0.1361,-0.1356,-0.1334,-0.1308,-0.1302,-0.1315,-0.1295,-0.1226,-0.1225,-0.1224,-0.13,-0.1304,-0.1308,0,0,0,0,0,-0.1448,-0.1449,-0.1442,-0.1441,-0.1422,-0.1433,-0.143,-0.1417,-0.1398,-0.1406,-0.137,-0.1357,-0.1298,-0.1306,-0.1298,-0.1311,-0.1227,-0.1226,-0.1225,-0.1299,-0.1303,-0.1308,0,0,0,0,0,0,-0.1454,-0.1446,-0.1438,-0.1437,-0.1445,-0.1431,-0.1431,-0.1421,-0.1396,-0.1387,-0.1352,-0.1345,-0.1329,-0.1301,-0.1311,-0.1282,-0.1259,-0.1257,-0.1318,-0.1322,-0.1326,-0.1349,-0.1293,0,0,0,0,0,-0.1454,-0.1448,-0.1451,-0.1449,-0.1454,-0.144,-0.1439,-0.1435,-0.1417,-0.1406,-0.1383,-0.1347,-0.1316,-0.1306,-0.1277,-0.1264,-0.1245,-0.1263,-0.1267,-0.1271,-0.1281,-0.1258,-0.1261,-0.1221,-0.1221,-0.1221,0,0,-0.1454,-0.1451,-0.1446,-0.145,-0.1445,-0.1474,-0.1439,-0.1446,-0.146,-0.1403,-0.1401,-0.136,-0.1313,-0.1299,-0.129,-0.1282,-0.1273,-0.1269,-0.1273,-0.1282,-0.1257,-0.1261,-0.1265,-0.122,-0.122,-0.122,0,0,-0.1471,-0.1451,-0.1463,-0.1479,-0.149,-0.1489,-0.1497,-0.1492,-0.1478,-0.1474,-0.1428,-0.1393,-0.1361,-0.1328,-0.1305,-0.1307,-0.1291,-0.1299,-0.1345,-0.1322,-0.1326,-0.1329,-0.1322,-0.1324,-0.1305,-0.1306,-0.1306,0,-0.1476,-0.1495,-0.1471,-0.1504,-0.1527,-0.1504,-0.1546,-0.153,-0.1518,-0.1507,-0.1488,-0.1421,-0.1374,-0.1351,-0.1347,-0.1319,-0.1312,-0.1338,-0.1331,-0.1333,-0.1335,-0.1327,-0.1328,-0.1309,-0.1309,-0.1308,-0.1308,0,-0.1509,-0.1541,-0.1552,-0.1586,-0.1603,-0.1633,-0.163,-0.1629,-0.1607,-0.159,-0.156,-0.1492,-0.1456,-0.143,-0.1388,-0.1377,-0.1369,-0.1339,-0.1329,-0.1345,-0.1334,-0.1334,-0.1314,-0.1313,-0.1312,-0.1311,0,0,-0.1487,-0.1565,-0.1571,-0.1618,-0.1654,-0.1673,-0.1694,-0.1707,-0.171,-0.1678,-0.1676,-0.1602,-0.1559,-0.1528,-0.1468,-0.144,-0.1434,-0.1403,-0.14,-0.1415,-0.1407,-0.1357,-0.1352,-0.1413,-0.1413,-0.1413,-0.1398,0,-0.153,-0.1622,-0.164,-0.173,-0.1784,-0.1784,-0.1806,-0.1804,-0.1782,-0.177,-0.1691,-0.1656,-0.1598,-0.1569,-0.1539,-0.145,-0.1437,-0.1442,-0.1373,-0.1371,-0.134,-0.135,-0.1335,-0.1317,-0.1398,-0.1398,-0.1398,0,-0.1549,-0.1624,-0.1721,-0.182,-0.1837,-0.1874,-0.1904,-0.1921,-0.1889,-0.1865,-0.1829,-0.1764,-0.1703,-0.1646,-0.1554,-0.1567,-0.1501,-0.1439,-0.1437,-0.1364,-0.132,-0.1309,-0.1313,-0.1295,-0.1398,-0.1398,-0.1398,0,-0.1543,-0.167,-0.1752,-0.1789,-0.1889,-0.1912,-0.1945,-0.1941,-0.194,-0.1912,-0.1896,-0.184,-0.1781,-0.1713,-0.1578,-0.1572,-0.148,-0.1452,-0.1358,-0.1354,-0.1313,-0.1305,-0.1304,-0.1405,-0.1405,-0.1405,-0.1405,0,-0.1573,-0.1638,-0.1758,-0.1806,-0.1886,-0.1935,-0.1976,-0.1991,-0.1991,-0.1973,-0.1934,-0.1891,-0.1792,-0.1715,-0.162,-0.149,-0.1517,-0.1373,-0.1345,-0.1338,-0.1333,-0.1288,-0.1274,-0.1404,-0.1404,-0.1405,-0.1405,0,-0.1535,-0.1623,-0.1724,-0.185,-0.1884,-0.1927,-0.1996,-0.2015,-0.2019,-0.1994,-0.1979,-0.1923,-0.1821,-0.1731,-0.16,-0.152,-0.1375,-0.1359,-0.1364,-0.1335,-0.1222,-0.1212,-0.1159,-0.1115,-0.1265,-0.1263,-0.1262,0,-0.1518,-0.1571,-0.1724,-0.1776,-0.183,-0.1906,-0.1947,-0.2007,-0.2015,-0.1986,-0.1962,-0.1883,-0.1794,-0.1629,-0.1495,-0.1366,-0.132,-0.1263,-0.1232,-0.1221,-0.119,-0.1185,-0.1152,-0.1218,-0.1216,-0.1215,-0.1214,0,-0.1473,-0.152,-0.1597,-0.1712,-0.1783,-0.1857,-0.1915,-0.1913,-0.1944,-0.1931,-0.185,-0.1786,-0.1675,-0.1534,-0.1401,-0.1298,-0.1238,-0.1233,-0.122,-0.1153,-0.115,-0.1092,-0.1237,-0.1204,-0.1205,-0.1206,-0.1206,-0.1207,-0.139,-0.1423,-0.1509,-0.1596,-0.17,-0.1722,-0.1698,-0.1748,-0.172,-0.1652,-0.1716,-0.1649,-0.1577,-0.1383,-0.1284,-0.1135,-0.1132,-0.1077,-0.1068,-0.1068,-0.1014,-0.1139,-0.1066,-0.1066,-0.1066,-0.1067,-0.1067,0,-0.1244,-0.1291,-0.1381,-0.1465,-0.1515,-0.1605,-0.1613,-0.1538,-0.1439,-0.1528,-0.1497,-0.15,-0.1371,-0.1287,-0.1114,-0.1009,-0.0973,-0.0959,-0.0972,-0.0943,-0.1058,-0.1045,-0.0966,-0.0966,-0.0966,-0.0966,-0.0966,-0.0966,-0.1167,-0.116,-0.1209,-0.1223,-0.1295,-0.1243,-0.1194,-0.112,-0.1141,-0.1119,-0.1221,-0.1351,-0.1261,-0.1163,-0.0988,-0.0934,-0.0881,-0.0861,-0.0827,-0.0942,-0.0954,-0.0965,-0.0951,-0.0853,-0.0853,-0.0717,-0.0716,-0.0715]},{"header":{"parameterUnit":"m.s-1","parameterCategory":2,"la1":30.2991,"la2":30.254,"lo1":-89.0895,"lo2":-89.0444,"dy":0.0017,"dx":0.0017,"nx":28,"ny":28,"refTime":"2023-11-08T03:00:00:Z","depth":"0","parameterNumber":3,"parameterNumberName":"V-component_of_CURRENTS"},"data":[0,0,0,0,0,0,0,0,0,0,0,0,0,0,0,0,0,0,0,0,0,0,0,0,0,0,0,0,0,0,0,0,0,0,0,0,0,0,0,0,0,0,0,0,0,0,0,0,0,0,0,0,0,0,0,0,0,0,-0.0029,-0.0029,0,-0.0022,-0.0022,-0.0022,-0.0027,-0.0028,-0.0028,-0.0029,-0.001,-0.0009,-0.0009,0,0,0,0,0,0,0,0,0,0,0,0,0,0.0009,0.0008,-0.0029,-0.0029,-0.0029,-0.0022,-0.0022,-0.0022,-0.0027,-0.0028,-0.0029,-0.0029,-0.0011,-0.001,-0.0008,0,0,0,0,0,0,0,0,0,0,0,0,0,0.0004,0.0008,-0.0029,-0.0034,-0.0034,-0.0023,-0.0022,-0.0022,-0.0027,-0.0028,-0.0029,-0.0029,-0.0011,-0.001,-0.0008,0.0016,0,0,-0.0004,-0.0003,0,0,0,0,0,0,0,0,0.0005,0.0003,-0.0033,-0.0033,-0.0034,-0.0029,-0.0002,-0.0009,-0.0027,-0.0026,-0.0029,-0.003,-0.0017,-0.0015,-0.0008,0.0017,0.0018,-0.0004,-0.0003,-0.0002,-0.0002,0,0,0,0,0,0,0,0.0005,0.0003,-0.0023,-0.0033,-0.0034,-0.0018,-0.0019,-0.0003,-0.0015,-0.0027,-0.0028,-0.0032,-0.0017,-0.0009,-0.0008,0.0018,-0.0004,-0.0002,-0.0001,-0.0001,0.0103,0.0105,0,0,0,0,0,0,-0.0004,0.0003,-0.0023,-0.0023,-0.002,-0.0018,-0.002,-0.0027,-0.0015,-0.0015,-0.0031,-0.0032,-0.0011,-0.0009,-0.0007,0.0053,-0.0002,-0.0001,0.0,0.0101,0.0103,0.0105,0,0,0,0,0,0,-0.0004,-0.0007,-0.0024,-0.0012,-0.0013,-0.0019,-0.0027,-0.0027,-0.0023,-0.002,-0.0019,-0.0028,-0.0012,-0.0009,0.0021,0.0053,-0.0,0.0001,0.0099,0.0102,0.0104,0.0154,0,0,0,0,0,0,-0.0003,-0.0007,-0.0013,-0.0013,-0.0015,-0.0018,-0.0026,-0.0026,-0.0026,-0.0027,-0.0016,-0.0015,-0.0012,0.0019,0.0022,0.0054,0.0002,0.0097,0.01,0.0104,0.015,0.0159,0.0166,0,0,0,0,0,-0.0001,-0.001,-0.0013,-0.0016,-0.0024,-0.0018,-0.0016,-0.002,-0.0025,-0.002,-0.0002,-0.0016,0.0044,0.0022,0.0025,0.0058,0.0095,0.0099,0.0103,0.0147,0.0157,0.0165,0,0,0,0,0,0,-0.0007,-0.0012,-0.0015,-0.0028,-0.0023,-0.002,-0.0022,-0.0018,-0.0001,-0.0004,0.0005,0.0009,0.0046,0.0049,0.0024,0.01,0.0069,0.0074,0.0101,0.011,0.0118,0.0113,0.0004,0,0,0,0,0,-0.0009,-0.0013,-0.0014,-0.0025,-0.0024,-0.002,-0.0018,-0.0019,-0.0007,-0.0001,0.0016,0.0038,0.0069,0.0084,0.0103,0.0145,0.0164,0.017,0.0178,0.0184,0.0185,0.0259,0.0274,0.0119,0.0119,0.0119,0,0,-0.0019,-0.002,-0.0026,-0.0025,-0.0024,-0.0013,-0.002,-0.0021,0.0001,-0.0,0.004,0.0059,0.0084,0.0132,0.015,0.0137,0.024,0.019,0.0195,0.0192,0.0265,0.028,0.0294,0.0122,0.0122,0.0121,0,0,-0.0039,-0.0037,-0.0047,-0.0032,-0.003,-0.0016,-0.0015,-0.0002,0.0016,0.0054,0.0068,0.0112,0.0147,0.0187,0.0207,0.0271,0.0273,0.0274,0.0315,0.0387,0.0401,0.0412,0.0459,0.0474,0.0284,0.0284,0.0284,0,-0.0053,-0.0063,-0.0048,-0.0043,-0.0031,-0.0015,-0.0011,0.002,0.0048,0.0078,0.0068,0.0164,0.0178,0.0261,0.0282,0.0288,0.0317,0.0275,0.0397,0.0409,0.0421,0.0465,0.0482,0.0287,0.0287,0.0286,0.0286,0,-0.0075,-0.0073,-0.0075,-0.0056,-0.0032,-0.003,0.0016,0.0051,0.0077,0.0112,0.019,0.0231,0.0285,0.0309,0.0311,0.0408,0.0399,0.0393,0.0371,0.0439,0.0482,0.0498,0.0291,0.029,0.0289,0.0288,0,0,-0.0139,-0.0103,-0.0103,-0.0095,-0.004,-0.0032,0.0035,0.0092,0.0132,0.0194,0.0259,0.0335,0.0358,0.0384,0.0411,0.048,0.0583,0.0469,0.0472,0.0509,0.0732,0.0734,0.0752,0.0601,0.0604,0.0606,0.073,0,-0.0169,-0.0177,-0.0127,-0.0109,-0.011,-0.0034,0.0027,0.0096,0.0158,0.0234,0.0317,0.0374,0.039,0.041,0.0493,0.0553,0.0628,0.0549,0.0665,0.0668,0.0658,0.0772,0.0811,0.0926,0.0746,0.0749,0.0751,0,-0.0212,-0.021,-0.0215,-0.0146,-0.0135,-0.0104,-0.0007,0.0052,0.0185,0.0237,0.0338,0.0393,0.0512,0.05,0.0674,0.0623,0.068,0.0731,0.0737,0.0731,0.0701,0.083,0.0962,0.0935,0.0775,0.0773,0.0772,0,-0.03,-0.0263,-0.0274,-0.0255,-0.0175,-0.0143,-0.0086,0.0039,0.0099,0.0231,0.0283,0.0436,0.0495,0.0619,0.0726,0.0705,0.0906,0.0888,0.0952,0.0951,0.1003,0.1002,0.1119,0.1015,0.1015,0.1014,0.1014,0,-0.0363,-0.0362,-0.0325,-0.0334,-0.032,-0.0224,-0.0171,-0.0089,0.0046,0.014,0.0262,0.0361,0.0527,0.066,0.0756,0.0915,0.0937,0.0986,0.1002,0.1021,0.102,0.1009,0.0972,0.1019,0.1018,0.1017,0.1016,0,-0.0458,-0.0433,-0.0445,-0.0391,-0.0373,-0.0367,-0.0249,-0.0189,-0.0066,0.0062,0.0102,0.0311,0.0501,0.066,0.0861,0.094,0.112,0.1125,0.1121,0.1135,0.116,0.1124,0.1295,0.1384,0.1235,0.1236,0.1237,0,-0.0501,-0.0534,-0.0524,-0.0531,-0.0512,-0.0475,-0.0424,-0.0278,-0.0179,0.0048,0.0124,0.0318,0.0519,0.0808,0.0979,0.1174,0.1178,0.1284,0.1257,0.1197,0.1168,0.1168,0.1231,0.1349,0.1351,0.1352,0.1353,0,-0.0591,-0.0603,-0.0618,-0.0657,-0.0635,-0.0569,-0.047,-0.0399,-0.018,-0.003,0.0212,0.0378,0.0657,0.0925,0.1138,0.1247,0.1307,0.1317,0.1285,0.1303,0.1285,0.1365,0.1197,0.1366,0.1365,0.1364,0.1363,0.1363,-0.0655,-0.0702,-0.0743,-0.0766,-0.0732,-0.0625,-0.0547,-0.0356,-0.0161,0.0157,0.0277,0.0563,0.0831,0.1167,0.1281,0.1408,0.141,0.1437,0.1409,0.1423,0.1484,0.1323,0.1479,0.1479,0.1478,0.1478,0.1477,0,-0.0721,-0.0776,-0.0829,-0.0832,-0.0799,-0.0739,-0.0541,-0.0376,-0.0089,0.0203,0.0473,0.0786,0.1069,0.1249,0.1437,0.1488,0.1567,0.149,0.1499,0.1574,0.1465,0.144,0.1558,0.1558,0.1558,0.1558,0.1558,0.1558,-0.0757,-0.0851,-0.0888,-0.089,-0.086,-0.0747,-0.061,-0.0299,-0.0037,0.0418,0.0658,0.0859,0.0999,0.1271,0.1408,0.1457,0.1527,0.1527,0.157,0.1429,0.1421,0.1413,0.1382,0.1486,0.1486,0.1746,0.1747,0.1748]}],[{"header":{"parameterUnit":"m.s-1","parameterCategory":2,"la1":30.2991,"la2":30.254,"lo1":-89.0895,"lo2":-89.0444,"dy":0.0017,"dx":0.0017,"nx":28,"ny":28,"refTime":"2023-11-08T03:00:00:Z","depth":"2","parameterNumber":2,"parameterNumberName":"U-component_of_CURRENTS"},"data":[0,0,0,0,0,0,0,0,0,0,0,0,0,0,0,0,0,0,0,0,0,0,0,0,0,0,0,0,0,0,0,0,0,0,0,0,0,0,0,0,0,0,0,0,0,0,0,0,0,0,0,0,0,0,0,0,0,0,-0.2647,-0.2647,0,-0.2618,-0.2618,-0.2617,-0.2559,-0.2559,-0.2558,-0.2557,-0.2495,-0.2494,-0.2493,0,0,0,0,0,0,0,0,0,0,0,0,0,-0.2643,-0.2643,-0.2647,-0.2647,-0.2646,-0.2619,-0.2618,-0.2617,-0.256,-0.2558,-0.2557,-0.2556,-0.2495,-0.2494,-0.2493,0,0,0,0,0,0,0,0,0,0,0,0,0,-0.263,-0.2643,-0.2647,-0.2616,-0.2613,-0.2619,-0.2618,-0.2617,-0.256,-0.2558,-0.2557,-0.2556,-0.2495,-0.2494,-0.2493,-0.2513,0,0,-0.2489,-0.2489,0,0,0,0,0,0,0,0,-0.2631,-0.263,-0.2621,-0.2618,-0.2615,-0.2593,-0.2594,-0.2582,-0.256,-0.2577,-0.2557,-0.2555,-0.2527,-0.2523,-0.2518,-0.251,-0.2508,-0.2489,-0.2489,-0.2488,-0.2488,0,0,0,0,0,0,0,-0.2632,-0.2631,-0.2633,-0.2621,-0.2617,-0.2602,-0.2598,-0.2591,-0.2558,-0.2576,-0.2572,-0.2574,-0.2525,-0.2519,-0.2516,-0.2507,-0.2489,-0.2488,-0.2487,-0.2487,-0.2491,-0.2491,0,0,0,0,0,0,-0.2643,-0.2632,-0.2634,-0.2632,-0.2623,-0.2603,-0.2599,-0.26,-0.2558,-0.2552,-0.2575,-0.2571,-0.2522,-0.2517,-0.2514,-0.2514,-0.2488,-0.2487,-0.2486,-0.249,-0.2491,-0.2492,0,0,0,0,0,0,-0.2643,-0.2643,-0.2635,-0.2633,-0.2632,-0.2605,-0.2606,-0.26,-0.2587,-0.2559,-0.255,-0.2567,-0.2521,-0.2515,-0.2511,-0.2511,-0.2486,-0.2485,-0.2489,-0.249,-0.2491,-0.2528,0,0,0,0,0,0,-0.2643,-0.2644,-0.2642,-0.2634,-0.2632,-0.2643,-0.2607,-0.26,-0.2591,-0.2586,-0.255,-0.2543,-0.2519,-0.2513,-0.2509,-0.2509,-0.2484,-0.2488,-0.2489,-0.2491,-0.2525,-0.253,-0.2534,0,0,0,0,0,-0.2643,-0.2656,-0.2642,-0.2642,-0.2632,-0.2644,-0.2642,-0.2616,-0.2593,-0.2596,-0.2572,-0.2544,-0.2519,-0.2513,-0.2509,-0.2508,-0.2487,-0.2489,-0.2491,-0.2523,-0.2529,-0.2534,0,0,0,0,0,0,-0.2659,-0.2651,-0.2635,-0.2645,-0.2645,-0.2635,-0.2633,-0.262,-0.2604,-0.259,-0.2559,-0.2552,-0.2548,-0.253,-0.2524,-0.2515,-0.2497,-0.2498,-0.2523,-0.2528,-0.2532,-0.2524,-0.2483,0,0,0,0,0,-0.2662,-0.2661,-0.2659,-0.2665,-0.2664,-0.2648,-0.2646,-0.2632,-0.2621,-0.261,-0.2588,-0.2565,-0.2556,-0.2543,-0.2534,-0.2532,-0.2499,-0.2529,-0.2533,-0.2536,-0.2528,-0.2491,-0.249,-0.2498,-0.2498,-0.2498,0,0,-0.2668,-0.2665,-0.2663,-0.2667,-0.2657,-0.2665,-0.2642,-0.2643,-0.2642,-0.2608,-0.2596,-0.2583,-0.2562,-0.2558,-0.2554,-0.2539,-0.2518,-0.2539,-0.2542,-0.2531,-0.2492,-0.2491,-0.249,-0.2499,-0.2499,-0.2498,0,0,-0.2689,-0.2678,-0.2685,-0.2687,-0.2683,-0.2676,-0.2679,-0.2671,-0.2655,-0.2657,-0.2628,-0.2616,-0.2604,-0.2582,-0.2571,-0.2595,-0.2548,-0.2595,-0.26,-0.2564,-0.2562,-0.256,-0.2518,-0.2513,-0.2589,-0.2589,-0.2589,0,-0.2696,-0.2701,-0.2691,-0.2702,-0.2702,-0.2684,-0.2695,-0.2686,-0.2676,-0.2665,-0.2657,-0.2627,-0.2612,-0.2594,-0.2603,-0.2601,-0.2572,-0.2581,-0.2567,-0.2565,-0.2562,-0.252,-0.2513,-0.2591,-0.2591,-0.2591,-0.2591,0,-0.272,-0.2724,-0.2732,-0.2731,-0.2735,-0.2742,-0.2734,-0.273,-0.2711,-0.2696,-0.2679,-0.2659,-0.2634,-0.2634,-0.2627,-0.2604,-0.2587,-0.2582,-0.2551,-0.2563,-0.2518,-0.251,-0.2594,-0.2593,-0.2593,-0.2592,0,0,-0.2726,-0.2744,-0.2743,-0.2744,-0.2747,-0.2752,-0.2754,-0.2747,-0.2734,-0.272,-0.27,-0.2687,-0.2662,-0.2649,-0.263,-0.2602,-0.2568,-0.2587,-0.2585,-0.2539,-0.248,-0.243,-0.2416,-0.256,-0.2558,-0.2558,-0.2456,0,-0.274,-0.2769,-0.2771,-0.2786,-0.2794,-0.2784,-0.2787,-0.2775,-0.2757,-0.2737,-0.2702,-0.2679,-0.267,-0.2654,-0.2627,-0.2587,-0.2548,-0.2595,-0.248,-0.2477,-0.2424,-0.2405,-0.2155,-0.204,-0.2448,-0.2446,-0.2445,0,-0.2747,-0.2766,-0.2789,-0.2801,-0.2802,-0.2808,-0.2794,-0.2796,-0.2767,-0.2751,-0.2717,-0.2688,-0.2645,-0.2637,-0.2551,-0.2582,-0.2531,-0.2497,-0.2492,-0.2423,-0.2411,-0.2093,-0.201,-0.2431,-0.2433,-0.2434,-0.2434,0,-0.2734,-0.2768,-0.2784,-0.279,-0.2808,-0.2807,-0.2808,-0.2791,-0.2776,-0.2746,-0.2721,-0.2676,-0.2633,-0.2579,-0.2509,-0.2526,-0.2411,-0.2421,-0.2321,-0.2317,-0.2068,-0.2044,-0.2347,-0.2347,-0.2348,-0.2348,-0.2348,0,-0.2736,-0.2741,-0.2779,-0.2783,-0.2789,-0.2802,-0.2793,-0.2787,-0.2767,-0.2733,-0.2715,-0.2668,-0.2616,-0.2546,-0.2497,-0.2376,-0.2391,-0.2306,-0.2282,-0.2077,-0.2056,-0.2372,-0.2376,-0.2344,-0.2345,-0.2346,-0.2346,0,-0.2702,-0.2733,-0.2743,-0.2772,-0.2778,-0.2774,-0.2777,-0.2769,-0.2754,-0.2707,-0.2691,-0.2642,-0.255,-0.2489,-0.239,-0.2336,-0.2247,-0.2199,-0.1965,-0.1915,-0.2181,-0.2188,-0.2072,-0.2069,-0.2067,-0.2065,-0.2063,0,-0.2685,-0.2691,-0.272,-0.2719,-0.2726,-0.2733,-0.2735,-0.2749,-0.2731,-0.2677,-0.2642,-0.2559,-0.2437,-0.2282,-0.2146,-0.2009,-0.2158,-0.1784,-0.1778,-0.2162,-0.215,-0.2161,-0.2172,-0.1454,-0.1447,-0.1442,-0.1438,0,-0.2629,-0.2637,-0.2638,-0.2645,-0.2651,-0.2653,-0.265,-0.2626,-0.2623,-0.2563,-0.2447,-0.2343,-0.2174,-0.1893,-0.1762,-0.1686,-0.1792,-0.1676,-0.2085,-0.1594,-0.1579,-0.1569,-0.1598,-0.139,-0.1395,-0.1398,-0.1401,-0.1403,-0.2555,-0.2544,-0.2537,-0.2525,-0.2542,-0.2498,-0.2428,-0.2419,-0.2326,-0.2076,-0.2131,-0.1816,-0.1754,-0.1335,-0.1316,-0.1321,-0.1444,-0.1398,-0.1413,-0.1434,-0.1412,-0.1397,-0.1169,-0.1172,-0.1175,-0.1177,-0.1179,0,-0.244,-0.2423,-0.2414,-0.2371,-0.2318,-0.2372,-0.231,-0.2162,-0.1979,-0.1726,-0.1495,-0.1135,-0.0901,-0.0936,-0.081,-0.0854,-0.0849,-0.0905,-0.0859,-0.0902,-0.0941,-0.0897,-0.0515,-0.0515,-0.0514,-0.0514,0,0,-0.2364,-0.2298,-0.2287,-0.2127,-0.2103,-0.1949,-0.1867,-0.166,-0.1437,-0.1024,-0.074,-0.0483,-0.0656,-0.0429,-0.0498,-0.0487,-0.0684,-0.0472,-0.0972,-0.094,-0.0978,-0.1167,-0.1139,0,0,0,0,0]},{"header":{"parameterUnit":"m.s-1","parameterCategory":2,"la1":30.2991,"la2":30.254,"lo1":-89.0895,"lo2":-89.0444,"dy":0.0017,"dx":0.0017,"nx":28,"ny":28,"refTime":"2023-11-08T03:00:00:Z","depth":"2","parameterNumber":3,"parameterNumberName":"V-component_of_CURRENTS"},"data":[0,0,0,0,0,0,0,0,0,0,0,0,0,0,0,0,0,0,0,0,0,0,0,0,0,0,0,0,0,0,0,0,0,0,0,0,0,0,0,0,0,0,0,0,0,0,0,0,0,0,0,0,0,0,0,0,0,0,-0.0248,-0.0247,0,-0.0152,-0.0151,-0.015,-0.0128,-0.0128,-0.0129,-0.013,-0.0095,-0.0093,-0.0092,0,0,0,0,0,0,0,0,0,0,0,0,0,-0.0311,-0.0311,-0.0248,-0.0247,-0.0246,-0.0152,-0.0151,-0.015,-0.0127,-0.0128,-0.0129,-0.013,-0.0095,-0.0093,-0.0091,0,0,0,0,0,0,0,0,0,0,0,0,0,-0.0257,-0.0311,-0.0249,-0.0224,-0.0221,-0.0153,-0.0151,-0.0149,-0.0127,-0.0128,-0.0129,-0.013,-0.0096,-0.0093,-0.0091,-0.0056,0,0,-0.0084,-0.0083,0,0,0,0,0,0,0,0,-0.026,-0.0254,-0.0229,-0.0225,-0.0222,-0.0153,-0.016,-0.0121,-0.0127,-0.0163,-0.013,-0.0131,-0.0119,-0.0115,-0.0093,-0.0055,-0.0053,-0.0084,-0.0082,-0.0081,-0.0081,0,0,0,0,0,0,0,-0.0264,-0.0258,-0.021,-0.0227,-0.0223,-0.0183,-0.0177,-0.0152,-0.0137,-0.016,-0.0158,-0.0147,-0.0118,-0.0096,-0.0093,-0.0053,-0.0084,-0.0082,-0.008,-0.0079,-0.0024,-0.0024,0,0,0,0,0,0,-0.028,-0.0262,-0.0213,-0.0207,-0.0244,-0.0181,-0.0175,-0.0174,-0.0136,-0.0131,-0.0146,-0.0146,-0.0099,-0.0095,-0.0092,-0.0082,-0.0081,-0.0079,-0.0078,-0.0024,-0.0024,-0.0024,0,0,0,0,0,0,-0.0282,-0.0277,-0.0217,-0.0232,-0.0221,-0.018,-0.0179,-0.0172,-0.0161,-0.0125,-0.0122,-0.0145,-0.01,-0.0095,-0.0077,-0.008,-0.0078,-0.0076,-0.0024,-0.0024,-0.0024,-0.0042,0,0,0,0,0,0,-0.0284,-0.0279,-0.0287,-0.0233,-0.0221,-0.0181,-0.0177,-0.0169,-0.0152,-0.0152,-0.0123,-0.012,-0.01,-0.008,-0.0075,-0.0076,-0.0074,-0.0024,-0.0024,-0.0024,-0.0041,-0.0042,-0.0043,0,0,0,0,0,-0.0287,-0.0294,-0.0288,-0.0282,-0.0233,-0.018,-0.017,-0.0143,-0.0152,-0.014,-0.0127,-0.0121,-0.0076,-0.0078,-0.0071,-0.0073,-0.0024,-0.0024,-0.0024,-0.0041,-0.0042,-0.0043,0,0,0,0,0,0,-0.0319,-0.029,-0.0283,-0.028,-0.0236,-0.0177,-0.0166,-0.015,-0.0127,-0.0141,-0.0113,-0.0108,-0.0093,-0.008,-0.0083,-0.0057,-0.0052,-0.0051,-0.0067,-0.0068,-0.0069,-0.0059,-0.0072,0,0,0,0,0,-0.0331,-0.0335,-0.0286,-0.0282,-0.0265,-0.0219,-0.0198,-0.0181,-0.0151,-0.0142,-0.0117,-0.0102,-0.0082,-0.0075,-0.0052,-0.0035,-0.0005,-0.0034,-0.0035,-0.0036,-0.0023,0.0019,0.0024,-0.0024,-0.0024,-0.0024,0,0,-0.0342,-0.0326,-0.0329,-0.029,-0.0258,-0.0229,-0.0209,-0.0184,-0.0165,-0.0143,-0.0119,-0.0101,-0.0078,-0.0057,-0.0051,-0.005,-0.0008,-0.0035,-0.0036,-0.0023,0.002,0.0025,0.0029,-0.0023,-0.0023,-0.0023,0,0,-0.0357,-0.0351,-0.0355,-0.032,-0.028,-0.0248,-0.0246,-0.0193,-0.0178,-0.0148,-0.0133,-0.011,-0.0081,-0.0054,-0.0042,-0.0033,-0.0012,-0.0042,-0.0039,0.0001,0.0006,0.001,0.005,0.0058,-0.0045,-0.0045,-0.0045,0,-0.0371,-0.0369,-0.0343,-0.0324,-0.03,-0.0261,-0.0245,-0.0214,-0.0163,-0.0148,-0.015,-0.009,-0.0073,-0.0039,-0.0039,-0.0033,-0.0011,-0.0038,0.0001,0.0006,0.0011,0.005,0.006,-0.0046,-0.0046,-0.0046,-0.0046,0,-0.0377,-0.0373,-0.0366,-0.0339,-0.0307,-0.0287,-0.0239,-0.0215,-0.0199,-0.0167,-0.013,-0.0091,-0.0054,-0.0052,-0.0043,-0.0006,-0.0002,-0.0003,0.0005,0.0015,0.0055,0.0065,-0.0047,-0.0047,-0.0047,-0.0046,0,0,-0.0414,-0.0381,-0.038,-0.0372,-0.0318,-0.0294,-0.0261,-0.0214,-0.0196,-0.0153,-0.0117,-0.008,-0.0057,-0.004,-0.0022,0.0011,0.006,0.0012,0.0014,0.0052,0.0147,0.0136,0.0146,0.0058,0.006,0.0061,0.0161,0,-0.0425,-0.0421,-0.0387,-0.0369,-0.0362,-0.0306,-0.0272,-0.023,-0.0191,-0.0143,-0.0101,-0.0063,-0.0055,-0.0039,-0.0002,0.0047,0.0086,0.0034,0.0132,0.0135,0.0125,0.0157,0.0018,0.0093,0.0171,0.0172,0.0174,0,-0.0442,-0.0439,-0.0437,-0.0397,-0.0385,-0.0361,-0.0305,-0.0269,-0.0194,-0.0161,-0.0109,-0.0068,-0.0004,-0.0003,0.01,0.0062,0.0107,0.0143,0.0148,0.0154,0.0142,0.0097,0.0109,0.0191,0.0189,0.0188,0.0187,0,-0.0503,-0.0471,-0.048,-0.0464,-0.0408,-0.039,-0.0357,-0.0286,-0.0255,-0.0172,-0.014,-0.0055,-0.0009,0.0061,0.0141,0.012,0.0253,0.0237,0.0275,0.0275,0.0188,0.0177,0.0318,0.0318,0.0318,0.0317,0.0317,0,-0.0535,-0.0541,-0.0513,-0.0514,-0.0513,-0.0448,-0.0423,-0.0372,-0.0291,-0.0261,-0.016,-0.0119,0.0008,0.0096,0.0157,0.0253,0.0273,0.0294,0.0306,0.0176,0.0164,0.027,0.0263,0.0321,0.032,0.032,0.0319,0,-0.0608,-0.0586,-0.0597,-0.0558,-0.0546,-0.0551,-0.0483,-0.0462,-0.037,-0.0321,-0.0295,-0.0153,-0.0033,0.0098,0.0231,0.0274,0.0365,0.0392,0.0236,0.0227,0.0355,0.0346,0.045,0.045,0.0451,0.0451,0.0451,0,-0.0647,-0.0665,-0.0656,-0.0671,-0.0658,-0.0644,-0.0629,-0.0529,-0.0495,-0.0361,-0.0345,-0.0192,-0.0116,0.0101,0.0193,0.0325,0.0395,0.0317,0.0259,0.0371,0.0372,0.0362,0.0353,0.0135,0.0133,0.0131,0.013,0,-0.0728,-0.0731,-0.0744,-0.0779,-0.0782,-0.076,-0.0725,-0.0705,-0.0584,-0.0526,-0.043,-0.0356,-0.0167,-0.0074,0.0124,0.0182,0.0284,0.0284,0.0451,0.0122,0.0082,0.0081,0.008,0.0113,0.0115,0.0116,0.0117,0.0117,-0.0797,-0.0838,-0.086,-0.0887,-0.0887,-0.0863,-0.0833,-0.0779,-0.0722,-0.0594,-0.0552,-0.0436,-0.0332,-0.0114,0.0022,0.0172,0.0166,0.0197,0.02,0.0205,0.0149,0.0112,0.0139,0.014,0.0142,0.0143,0.0144,0,-0.0888,-0.0919,-0.0962,-0.0973,-0.0972,-0.0935,-0.0877,-0.0811,-0.074,-0.0662,-0.058,-0.0485,-0.0417,-0.0214,-0.0077,0.0019,0.0007,0.0112,0.0041,0.0052,0.0062,-0.0,-0.005,-0.0048,-0.0047,-0.0046,0,0,-0.094,-0.1013,-0.1026,-0.1041,-0.1023,-0.096,-0.091,-0.0796,-0.0707,-0.06,-0.0537,-0.0562,-0.0426,-0.0334,-0.0234,-0.012,-0.0023,-0.0088,0.0025,-0.0068,-0.0055,0.0034,-0.0061,0,0,0,0,0]}],[{"header":{"parameterUnit":"m.s-1","parameterCategory":2,"la1":30.2991,"la2":30.254,"lo1":-89.0895,"lo2":-89.0444,"dy":0.0017,"dx":0.0017,"nx":28,"ny":28,"refTime":"2023-11-08T03:00:00:Z","depth":"4","parameterNumber":2,"parameterNumberName":"U-component_of_CURRENTS"},"data":[0,0,0,0,0,0,0,0,0,0,0,0,0,0,0,0,0,0,0,0,0,0,0,0,0,0,0,0,0,0,0,0,0,0,0,0,0,0,0,0,0,0,0,0,0,0,0,0,0,0,0,0,0,0,0,0,0,0,-0.0819,-0.082,0,-0.0843,-0.0843,-0.0842,-0.0866,-0.0867,-0.0868,-0.0869,-0.0956,-0.0958,-0.0959,0,0,0,0,0,0,0,0,0,0,0,0,0,-0.0774,-0.0775,-0.0819,-0.082,-0.0821,-0.0843,-0.0843,-0.0842,-0.0866,-0.0867,-0.0868,-0.0869,-0.0956,-0.0957,-0.0959,0,0,0,0,0,0,0,0,0,0,0,0,0,-0.079,-0.0775,-0.0819,-0.0839,-0.0842,-0.0843,-0.0843,-0.0842,-0.0866,-0.0867,-0.0868,-0.087,-0.0955,-0.0957,-0.096,-0.095,0,0,-0.0967,-0.0968,0,0,0,0,0,0,0,0,-0.0789,-0.0791,-0.0835,-0.0838,-0.0841,-0.0858,-0.0859,-0.0883,-0.0866,-0.0851,-0.0869,-0.087,-0.0932,-0.0936,-0.0929,-0.0954,-0.0957,-0.0967,-0.0968,-0.0969,-0.097,0,0,0,0,0,0,0,-0.0788,-0.079,-0.0823,-0.0836,-0.0839,-0.0841,-0.0844,-0.0863,-0.0881,-0.0852,-0.0856,-0.0866,-0.0933,-0.0927,-0.0932,-0.0959,-0.0967,-0.0969,-0.097,-0.0971,-0.1113,-0.1115,0,0,0,0,0,0,-0.0796,-0.0789,-0.0822,-0.0824,-0.0824,-0.0841,-0.0844,-0.0846,-0.088,-0.0887,-0.0865,-0.0868,-0.0922,-0.0929,-0.0935,-0.1029,-0.0969,-0.0972,-0.0973,-0.111,-0.1113,-0.1116,0,0,0,0,0,0,-0.0795,-0.0798,-0.0821,-0.0812,-0.0816,-0.0841,-0.0843,-0.0846,-0.0865,-0.089,-0.0897,-0.0884,-0.0923,-0.0932,-0.098,-0.1029,-0.0973,-0.0975,-0.1108,-0.1111,-0.1115,-0.1151,0,0,0,0,0,0,-0.0793,-0.0797,-0.0816,-0.0812,-0.0817,-0.0813,-0.0843,-0.0846,-0.0871,-0.0875,-0.0908,-0.0916,-0.0925,-0.0977,-0.0983,-0.1031,-0.0977,-0.1105,-0.1109,-0.1113,-0.1147,-0.1155,-0.1162,0,0,0,0,0,-0.0791,-0.0788,-0.0816,-0.0822,-0.0837,-0.0812,-0.0813,-0.0832,-0.0871,-0.0858,-0.0912,-0.0916,-0.101,-0.098,-0.0986,-0.1037,-0.1103,-0.1108,-0.1113,-0.1143,-0.1153,-0.1162,0,0,0,0,0,0,-0.0768,-0.0791,-0.0821,-0.0826,-0.0825,-0.0819,-0.0831,-0.0845,-0.0873,-0.0904,-0.093,-0.094,-0.1005,-0.1016,-0.0982,-0.1094,-0.1064,-0.1071,-0.1085,-0.1094,-0.1102,-0.1113,-0.0979,0,0,0,0,0,-0.0778,-0.0777,-0.08,-0.0795,-0.0818,-0.0835,-0.0841,-0.0849,-0.087,-0.0885,-0.093,-0.0986,-0.1026,-0.1055,-0.1087,-0.1137,-0.115,-0.1181,-0.1189,-0.1195,-0.1212,-0.1262,-0.1275,-0.1133,-0.1133,-0.1133,0,0,-0.0779,-0.0777,-0.0789,-0.0791,-0.0812,-0.0838,-0.084,-0.0848,-0.0867,-0.0893,-0.0966,-0.101,-0.1045,-0.1107,-0.1139,-0.1125,-0.1243,-0.1202,-0.1207,-0.122,-0.1269,-0.1282,-0.1295,-0.1137,-0.1136,-0.1136,0,0,-0.0756,-0.0778,-0.0792,-0.0798,-0.0823,-0.0835,-0.0846,-0.088,-0.0899,-0.0951,-0.0997,-0.106,-0.1131,-0.1163,-0.1187,-0.1255,-0.1279,-0.1295,-0.1346,-0.1395,-0.1406,-0.1417,-0.1446,-0.1458,-0.1302,-0.1302,-0.1303,0,-0.0758,-0.0769,-0.0785,-0.0799,-0.0822,-0.0846,-0.0878,-0.0888,-0.0931,-0.0978,-0.0983,-0.1123,-0.1149,-0.1222,-0.1269,-0.127,-0.1313,-0.13,-0.1403,-0.1414,-0.1424,-0.1451,-0.1465,-0.1305,-0.1305,-0.1304,-0.1304,0,-0.0763,-0.0779,-0.0782,-0.0825,-0.085,-0.0853,-0.0902,-0.0943,-0.0997,-0.1038,-0.1129,-0.1157,-0.125,-0.1272,-0.1301,-0.1404,-0.1415,-0.1399,-0.1371,-0.144,-0.1465,-0.1478,-0.1308,-0.1307,-0.1307,-0.1306,0,0,-0.0728,-0.078,-0.0777,-0.0809,-0.0862,-0.087,-0.0939,-0.1004,-0.1055,-0.1122,-0.1181,-0.1281,-0.1337,-0.1369,-0.14,-0.145,-0.1555,-0.1487,-0.1489,-0.1503,-0.1683,-0.1409,-0.1397,-0.1581,-0.1584,-0.1586,-0.1668,0,-0.0724,-0.0739,-0.0783,-0.0824,-0.0858,-0.0922,-0.0964,-0.1036,-0.1103,-0.1166,-0.1222,-0.1304,-0.1355,-0.1411,-0.1473,-0.1517,-0.1597,-0.1535,-0.1627,-0.1629,-0.1366,-0.1404,-0.1595,-0.1678,-0.1681,-0.1683,-0.1685,0,-0.0722,-0.0724,-0.0763,-0.0822,-0.0851,-0.089,-0.099,-0.1029,-0.1136,-0.1199,-0.1312,-0.1371,-0.1471,-0.148,-0.1617,-0.1593,-0.1682,-0.1706,-0.1709,-0.145,-0.1378,-0.16,-0.1709,-0.1707,-0.1705,-0.1704,-0.1702,0,-0.0667,-0.0711,-0.0731,-0.0751,-0.0832,-0.0884,-0.0942,-0.1059,-0.1102,-0.1243,-0.129,-0.1424,-0.1457,-0.1584,-0.1631,-0.169,-0.1709,-0.178,-0.162,-0.1602,-0.181,-0.1798,-0.1922,-0.1922,-0.1921,-0.1921,-0.1921,0,-0.0623,-0.0637,-0.0704,-0.0714,-0.0749,-0.0843,-0.0892,-0.0996,-0.1095,-0.1134,-0.1306,-0.1292,-0.1502,-0.1519,-0.1621,-0.1581,-0.171,-0.1631,-0.1601,-0.1823,-0.1812,-0.1819,-0.1806,-0.1924,-0.1923,-0.1923,-0.1922,0,-0.0552,-0.059,-0.0622,-0.0701,-0.0725,-0.0759,-0.0853,-0.0884,-0.1011,-0.1052,-0.1113,-0.1238,-0.1268,-0.1368,-0.1501,-0.151,-0.1528,-0.1501,-0.1672,-0.165,-0.1433,-0.1422,-0.1424,-0.1415,-0.1408,-0.1401,-0.1396,0,-0.0525,-0.0522,-0.0589,-0.0601,-0.064,-0.0681,-0.0699,-0.0838,-0.0874,-0.0953,-0.0948,-0.102,-0.1082,-0.1012,-0.1146,-0.1267,-0.129,-0.1331,-0.1481,-0.1409,-0.1382,-0.1383,-0.1382,-0.1383,-0.1382,-0.1379,-0.1377,0,-0.0469,-0.0489,-0.051,-0.0512,-0.0543,-0.0551,-0.06,-0.0612,-0.0733,-0.0829,-0.0798,-0.0833,-0.0801,-0.088,-0.0924,-0.1019,-0.1314,-0.1255,-0.1278,-0.142,-0.136,-0.1341,-0.1349,-0.1351,-0.1355,-0.1357,-0.1359,0,-0.0428,-0.042,-0.0432,-0.0437,-0.0449,-0.0436,-0.0467,-0.0481,-0.0529,-0.0664,-0.059,-0.0639,-0.072,-0.0737,-0.0743,-0.0805,-0.0923,-0.1015,-0.1054,-0.1085,-0.0931,-0.0802,-0.0594,0,0,0,0,0,-0.0375,-0.0352,-0.0352,-0.0354,-0.0354,-0.0358,-0.0404,-0.0438,-0.0516,-0.0482,-0.057,-0.0539,-0.057,-0.0564,-0.0592,-0.0652,-0.0937,-0.0682,-0.1066,-0.1203,-0.1234,-0.1081,0,0,0,0,0,0,-0.0335,-0.0325,-0.0327,-0.0276,-0.025,-0.0241,-0.0264,-0.0322,-0.0314,-0.0401,-0.0407,-0.0497,-0.0524,-0.0545,-0.0569,-0.0588,-0.0823,-0.0733,-0.0732,-0.1185,-0.1213,-0.1238,-0.1092,0,0,0,0,0]},{"header":{"parameterUnit":"m.s-1","parameterCategory":2,"la1":30.2991,"la2":30.254,"lo1":-89.0895,"lo2":-89.0444,"dy":0.0017,"dx":0.0017,"nx":28,"ny":28,"refTime":"2023-11-08T03:00:00:Z","depth":"4","parameterNumber":3,"parameterNumberName":"V-component_of_CURRENTS"},"data":[0,0,0,0,0,0,0,0,0,0,0,0,0,0,0,0,0,0,0,0,0,0,0,0,0,0,0,0,0,0,0,0,0,0,0,0,0,0,0,0,0,0,0,0,0,0,0,0,0,0,0,0,0,0,0,0,0,0,-0.0208,-0.0209,0,-0.0219,-0.0219,-0.0219,-0.0194,-0.0193,-0.0193,-0.0192,-0.0178,-0.0178,-0.0179,0,0,0,0,0,0,0,0,0,0,0,0,0,-0.0167,-0.0168,-0.0208,-0.0209,-0.0209,-0.0219,-0.0219,-0.0219,-0.0194,-0.0193,-0.0192,-0.0192,-0.0178,-0.0178,-0.0179,0,0,0,0,0,0,0,0,0,0,0,0,0,-0.0181,-0.0168,-0.0208,-0.0198,-0.0197,-0.0219,-0.0219,-0.0219,-0.0194,-0.0193,-0.0192,-0.0191,-0.0178,-0.0178,-0.0179,-0.0204,0,0,-0.018,-0.018,0,0,0,0,0,0,0,0,-0.0181,-0.0183,-0.0199,-0.0199,-0.0198,-0.0205,-0.02,-0.0213,-0.0195,-0.0195,-0.0192,-0.0191,-0.0186,-0.0186,-0.0189,-0.0203,-0.0202,-0.018,-0.018,-0.0181,-0.0181,0,0,0,0,0,0,0,-0.018,-0.0182,-0.0212,-0.02,-0.0199,-0.0193,-0.0194,-0.0202,-0.0195,-0.0195,-0.0193,-0.0196,-0.0185,-0.0189,-0.0189,-0.0202,-0.018,-0.0181,-0.0181,-0.0181,-0.0239,-0.024,0,0,0,0,0,0,-0.0181,-0.0182,-0.0211,-0.0212,-0.0187,-0.0195,-0.0196,-0.0203,-0.0196,-0.0194,-0.0197,-0.0195,-0.0189,-0.0188,-0.0188,-0.024,-0.0181,-0.0181,-0.0181,-0.0237,-0.0239,-0.024,0,0,0,0,0,0,-0.0181,-0.0184,-0.0211,-0.0197,-0.02,-0.0197,-0.0205,-0.0204,-0.0205,-0.0198,-0.0195,-0.0199,-0.0188,-0.0188,-0.0204,-0.0238,-0.0181,-0.0182,-0.0236,-0.0238,-0.024,-0.0329,0,0,0,0,0,0,-0.0179,-0.0184,-0.0196,-0.0198,-0.0201,-0.0238,-0.0207,-0.0205,-0.0209,-0.0206,-0.0199,-0.0197,-0.0187,-0.0203,-0.0204,-0.0238,-0.0182,-0.0234,-0.0237,-0.0239,-0.0325,-0.0334,-0.0342,0,0,0,0,0,-0.0178,-0.0203,-0.0196,-0.02,-0.0216,-0.0239,-0.0241,-0.0233,-0.021,-0.0226,-0.0216,-0.0197,-0.0218,-0.0205,-0.0206,-0.024,-0.0233,-0.0236,-0.0239,-0.0321,-0.0332,-0.0342,0,0,0,0,0,0,-0.0196,-0.0203,-0.0196,-0.0222,-0.0234,-0.0235,-0.0248,-0.0238,-0.0242,-0.0235,-0.0216,-0.0215,-0.0246,-0.0227,-0.0212,-0.0262,-0.0222,-0.0225,-0.0284,-0.0294,-0.0303,-0.0303,-0.0182,0,0,0,0,0,-0.0205,-0.0221,-0.0228,-0.025,-0.0255,-0.0249,-0.0257,-0.0254,-0.0255,-0.0255,-0.0252,-0.0247,-0.026,-0.0262,-0.0272,-0.0297,-0.0278,-0.0318,-0.0326,-0.0334,-0.0334,-0.0332,-0.0341,-0.0249,-0.0249,-0.0249,0,0,-0.0218,-0.0224,-0.0233,-0.0254,-0.0256,-0.0285,-0.0251,-0.027,-0.03,-0.0254,-0.0291,-0.0283,-0.0275,-0.031,-0.0321,-0.0296,-0.0354,-0.0337,-0.0344,-0.034,-0.0336,-0.0345,-0.0353,-0.0251,-0.0251,-0.0251,0,0,-0.0256,-0.0255,-0.0283,-0.0298,-0.0312,-0.0314,-0.032,-0.0329,-0.0338,-0.0371,-0.0349,-0.0365,-0.0374,-0.0386,-0.0388,-0.0449,-0.0405,-0.0439,-0.0479,-0.0479,-0.0486,-0.0492,-0.0498,-0.0504,-0.0437,-0.0437,-0.0438,0,-0.0271,-0.0307,-0.0297,-0.033,-0.0348,-0.0328,-0.0367,-0.0382,-0.0399,-0.0416,-0.0395,-0.0426,-0.042,-0.0465,-0.0476,-0.0473,-0.0449,-0.0444,-0.0491,-0.0496,-0.0501,-0.0505,-0.051,-0.0442,-0.0442,-0.0441,-0.0441,0,-0.0327,-0.0361,-0.0379,-0.0412,-0.0431,-0.0462,-0.0477,-0.05,-0.0499,-0.0512,-0.0557,-0.0551,-0.0561,-0.0567,-0.0535,-0.057,-0.0536,-0.0508,-0.0465,-0.0516,-0.0516,-0.0521,-0.0449,-0.0447,-0.0446,-0.0445,0,0,-0.0348,-0.0408,-0.0417,-0.0449,-0.0477,-0.0501,-0.0549,-0.0592,-0.062,-0.0644,-0.0685,-0.0708,-0.0682,-0.0681,-0.0653,-0.0645,-0.0666,-0.0577,-0.0575,-0.0585,-0.0654,-0.0588,-0.0586,-0.0627,-0.0628,-0.0629,-0.0647,0,-0.0397,-0.0473,-0.0492,-0.0569,-0.0604,-0.0611,-0.0657,-0.0691,-0.0705,-0.0742,-0.0751,-0.0777,-0.0734,-0.0726,-0.0719,-0.0686,-0.0675,-0.0663,-0.06,-0.0599,-0.0536,-0.0588,-0.0631,-0.065,-0.0651,-0.0651,-0.0652,0,-0.0446,-0.049,-0.0572,-0.0642,-0.0658,-0.0707,-0.0758,-0.0798,-0.0837,-0.0848,-0.0869,-0.0849,-0.0873,-0.0805,-0.0794,-0.0777,-0.0712,-0.0679,-0.0679,-0.0584,-0.054,-0.0583,-0.0658,-0.0658,-0.0657,-0.0657,-0.0656,0,-0.0452,-0.0549,-0.0616,-0.0642,-0.0714,-0.076,-0.0797,-0.0836,-0.0865,-0.0909,-0.092,-0.0941,-0.095,-0.0897,-0.082,-0.0797,-0.0783,-0.0754,-0.0644,-0.0639,-0.0652,-0.0644,-0.0719,-0.0719,-0.0719,-0.0719,-0.0719,0,-0.0487,-0.0548,-0.0635,-0.0669,-0.0755,-0.0791,-0.0856,-0.0899,-0.0935,-0.0949,-0.097,-0.0949,-0.0959,-0.0934,-0.0855,-0.0773,-0.0818,-0.0661,-0.064,-0.0692,-0.0689,-0.0655,-0.0648,-0.072,-0.0719,-0.0719,-0.0719,0,-0.0487,-0.0545,-0.0629,-0.0724,-0.0762,-0.0821,-0.0892,-0.0916,-0.0964,-0.0979,-0.0988,-0.0991,-0.0943,-0.0941,-0.0871,-0.0822,-0.0747,-0.0687,-0.0764,-0.0746,-0.0599,-0.0596,-0.06,-0.0598,-0.0596,-0.0595,-0.0594,0,-0.0496,-0.0539,-0.0655,-0.0703,-0.0758,-0.0835,-0.0865,-0.0928,-0.0925,-0.0949,-0.0934,-0.0929,-0.09,-0.0811,-0.0781,-0.0713,-0.0659,-0.0666,-0.0614,-0.0608,-0.0587,-0.0587,-0.0586,-0.0591,-0.059,-0.059,-0.0589,0,-0.0503,-0.0547,-0.0605,-0.0686,-0.0752,-0.0809,-0.0852,-0.085,-0.0874,-0.0932,-0.0857,-0.0819,-0.0775,-0.0727,-0.0708,-0.0622,-0.0707,-0.0646,-0.0649,-0.06,-0.0596,-0.0577,-0.0579,-0.0583,-0.0584,-0.0585,-0.0585,0,-0.0499,-0.0536,-0.0592,-0.067,-0.073,-0.0749,-0.0789,-0.0768,-0.0783,-0.0805,-0.0748,-0.0726,-0.0739,-0.067,-0.061,-0.0589,-0.055,-0.054,-0.0547,-0.0554,-0.0523,-0.0511,-0.0462,0,0,0,0,0,-0.0477,-0.0506,-0.0566,-0.0636,-0.0677,-0.0713,-0.0748,-0.0765,-0.0778,-0.0716,-0.0741,-0.0667,-0.0603,-0.0569,-0.0527,-0.0556,-0.0552,-0.0504,-0.0545,-0.0548,-0.0555,-0.052,0,0,0,0,0,0,-0.0468,-0.0509,-0.0544,-0.0565,-0.0595,-0.0633,-0.0651,-0.0676,-0.063,-0.0651,-0.0607,-0.064,-0.0572,-0.0624,-0.0518,-0.0513,-0.0528,-0.0496,-0.0495,-0.0544,-0.0551,-0.0556,-0.0523,0,0,0,0,0]}]]